Theta_e
284 284 284 284 283 283 282 282 282 282 281 281 281 280 280 280 280 279 279 278 278 278 277 277 277 276 276 276 275 275 274 274 274 274 274 273 274 273 273 273 272 273 273 273 273 273 273 273 272 272 273 272 273 273 273 272 272 273 273 273 272 272 271 270 269 269 271 273 273 273 273 273 272 273 272 272 273 273 275 274 274 274 274 274 274
284 284 284 283 283 282 282 282 281 281 281 280 280 280 280 280 279 278 278 277 277 277 277 277 276 276 276 275 275 274 274 274 273 273 273 272 272 273 272 272 272 272 272 272 272 274 272 272 272 272 273 271 272 272 272 272 272 271 271 272 271 271 272 271 269 269 268 271 271 272 272 273 271 273 271 271 272 273 273 273 274 274 274 274 274
284 283 283 283 282 282 282 281 281 280 280 280 279 279 279 278 278 278 277 277 277 277 277 276 276 276 275 275 274 273 273 273 272 272 272 272 271 271 272 272 272 271 271 271 271 272 271 271 271 271 272 271 271 271 271 271 271 271 270 271 270 271 271 271 270 268 268 269 271 270 271 271 271 271 272 272 273 273 272 273 273 274 275 274 274
283 283 283 282 282 281 281 281 281 280 280 280 279 279 278 278 278 277 277 277 276 276 277 277 276 275 274 274 273 273 272 272 272 272 272 271 271 272 271 272 271 271 271 271 271 271 270 270 271 271 271 270 270 270 271 270 270 270 270 270 271 270 271 271 271 270 269 268 269 270 271 270 271 272 272 273 272 272 273 273 274 274 274 275 274
283 283 282 282 281 281 281 281 281 280 280 279 279 278 278 277 277 277 277 277 276 276 276 276 275 275 274 273 273 272 272 272 272 271 271 271 271 271 271 271 271 271 271 271 274 270 270 270 270 270 270 269 269 270 270 269 270 270 270 270 270 271 271 271 270 270 269 268 269 270 271 271 272 272 272 271 272 273 273 273 273 274 274 275 275
283 282 282 282 281 281 281 281 280 280 280 280 280 279 278 277 277 277 277 277 276 275 275 275 275 274 273 273 272 272 271 271 271 270 270 271 271 271 271 271 271 271 271 271 270 271 270 270 270 270 270 269 269 270 269 269 270 270 270 270 271 271 270 270 271 270 270 270 270 270 271 270 271 271 272 273 272 272 272 273 274 274 274 274 275
283 282 282 282 281 281 281 281 281 281 280 280 279 278 277 277 277 276 277 277 275 274 274 274 274 273 273 272 272 272 272 271 270 269 270 270 271 271 271 270 270 270 270 270 271 271 270 270 270 270 270 270 270 269 269 269 270 270 270 270 271 270 270 270 271 270 271 271 270 271 270 272 272 271 273 274 273 273 272 272 272 274 275 274 274
282 282 282 282 282 281 281 281 281 281 281 280 279 278 277 277 277 276 276 276 275 275 275 275 274 273 273 273 273 272 271 270 269 269 270 271 271 270 270 270 270 270 270 270 270 270 270 270 270 270 270 270 270 270 270 270 270 270 271 270 270 270 269 269 270 269 269 269 270 270 271 271 272 273 274 273 272 273 274 273 271 272 273 275 275
282 282 282 282 282 282 281 282 282 281 280 279 278 278 277 277 277 276 276 275 276 275 275 275 273 273 273 273 272 272 271 270 270 270 270 270 271 271 270 270 270 269 269 269 269 269 269 269 270 271 272 274 276 276 276 275 272 267 269 269 269 269 267 267 267 268 269 269 270 271 271 271 272 272 271 272 272 272 273 274 273 273 274 274 275
282 282 282 282 282 282 282 282 281 280 279 278 278 277 277 276 276 276 276 275 275 274 274 274 274 273 273 272 271 270 270 270 273 276 275 271 270 271 271 270 270 269 269 268 269 269 269 269 270 274 275 276 276 276 276 276 277 274 270 270 269 268 265 264 267 269 270 270 270 271 270 271 271 272 272 273 274 274 273 273 271 273 273 273 274
282 282 282 282 282 282 282 281 281 280 279 279 278 277 276 276 276 276 275 275 274 274 274 274 273 272 272 272 271 271 270 271 276 278 278 278 272 271 270 269 270 270 269 269 269 269 269 269 269 272 274 274 273 275 275 276 276 276 276 276 276 271 267 269 271 272 271 270 272 272 271 270 271 272 273 273 273 272 272 272 272 272 271 270 268
282 282 281 282 282 282 281 281 280 280 279 278 278 277 276 276 275 275 275 274 274 273 273 273 273 272 272 271 271 270 270 274 278 279 280 279 276 271 270 269 270 271 271 270 269 269 269 269 269 270 269 270 270 270 272 274 274 275 275 276 276 277 277 275 273 273 273 272 272 271 271 271 272 273 272 272 271 272 273 273 272 271 270 269 268
282 281 281 281 281 282 281 280 280 279 279 278 277 276 276 275 275 275 274 274 273 272 273 273 272 271 271 271 270 269 269 276 278 280 280 281 280 275 271 271 271 271 271 271 270 270 269 269 269 269 269 273 272 269 268 268 272 274 275 276 276 277 278 278 278 276 275 273 271 271 272 272 271 271 272 272 274 271 271 270 270 270 269 268 268
282 282 282 281 281 281 280 280 279 279 279 278 277 276 275 275 275 275 274 274 273 273 273 272 272 271 271 270 270 269 269 274 279 280 281 281 281 279 272 272 272 272 272 271 270 270 270 269 268 268 268 268 269 269 269 268 268 268 269 270 272 274 276 277 277 277 276 274 273 272 272 272 271 272 274 274 271 270 269 268 269 268 268 267 269
282 282 282 281 281 281 280 280 279 279 278 278 276 276 275 275 275 274 274 274 273 273 272 272 271 271 270 270 269 268 268 275 278 280 281 281 281 280 274 274 272 272 272 272 271 271 270 270 269 268 268 268 268 269 267 267 267 268 269 271 272 273 274 274 274 275 275 274 273 272 273 274 274 274 273 273 272 271 270 269 269 268 268 269 268
281 281 281 281 280 280 280 280 280 279 278 277 276 276 276 275 275 274 273 273 273 273 272 271 271 270 270 268 268 268 268 276 278 279 281 281 282 277 274 274 272 272 271 272 272 272 271 269 268 268 267 268 271 274 274 272 271 271 271 273 274 274 274 276 277 277 276 274 274 274 275 275 276 273 273 272 271 271 271 270 268 267 267 266 265
281 281 281 281 280 280 280 280 279 279 278 277 276 276 276 275 275 274 272 273 273 272 271 270 270 269 268 268 267 268 266 273 278 279 280 281 280 274 273 273 272 271 270 270 270 270 269 269 268 268 267 267 271 275 276 276 274 273 274 273 272 271 273 275 276 277 277 277 277 276 276 275 275 274 274 274 272 272 268 266 265 266 265 263 264
281 281 281 281 281 280 281 281 280 279 278 277 277 277 277 276 275 274 273 273 272 272 271 270 269 269 268 267 267 267 266 270 277 279 279 280 279 273 273 272 271 270 269 270 269 269 268 271 271 269 268 268 273 275 277 276 274 274 273 272 271 272 273 273 271 272 275 275 273 272 271 271 271 271 271 272 272 271 266 263 265 265 263 263 261
281 281 281 282 282 281 281 281 281 280 279 278 278 277 277 276 275 273 273 273 273 272 269 269 268 267 267 267 269 268 266 268 275 278 279 280 279 273 272 271 270 269 268 267 268 268 268 270 272 272 271 271 275 276 277 277 275 274 273 273 272 271 271 271 271 270 269 268 267 265 264 266 266 265 266 270 270 269 267 266 265 263 262 262 262
282 282 282 282 282 281 281 280 280 279 278 278 278 277 277 275 274 273 272 272 272 270 268 268 267 266 265 265 266 267 266 265 268 277 278 279 280 274 272 270 269 268 267 267 267 268 268 267 270 274 276 277 277 277 278 279 276 275 274 273 270 269 272 270 270 269 267 265 263 262 262 263 263 264 264 265 266 266 267 267 266 265 264 263 263
282 281 280 279 279 279 279 279 279 279 279 278 277 276 276 275 273 272 271 270 269 267 267 266 265 265 264 265 264 265 265 265 265 275 278 279 280 279 272 271 270 269 267 267 267 266 266 267 266 271 275 276 277 278 278 278 278 276 274 271 271 272 274 266 267 267 264 262 260 260 260 260 261 262 263 264 264 265 265 267 266 267 265 264 263
279 278 278 278 278 278 278 278 279 279 277 276 275 275 274 274 273 271 269 268 268 267 264 264 264 264 263 263 263 263 265 267 264 271 276 278 279 280 275 272 272 269 268 266 266 266 267 267 267 271 274 276 276 277 278 278 278 276 273 275 276 276 270 266 265 263 261 259 257 258 258 257 259 260 261 262 263 264 265 265 266 266 266 266 265
278 278 278 278 277 277 277 277 277 277 275 275 275 275 272 271 270 269 268 267 266 266 265 264 264 264 263 263 263 263 263 263 270 267 273 277 278 279 279 276 277 272 268 267 267 267 267 268 269 272 274 275 276 277 278 278 278 275 276 276 275 275 268 264 262 260 257 257 257 257 258 257 258 259 260 261 263 264 264 265 265 265 266 266 267
277 277 277 277 276 276 276 275 275 275 274 273 273 273 271 270 268 267 267 266 266 265 265 264 263 263 264 264 264 263 262 262 266 271 270 274 277 278 279 280 279 275 272 270 269 269 268 269 270 273 275 276 277 277 278 278 276 275 275 275 274 269 264 261 259 257 257 256 256 256 257 258 257 259 260 262 263 263 264 264 265 265 265 266 266
276 276 276 276 275 275 274 274 274 273 273 272 272 271 268 267 267 265 265 266 266 266 266 264 264 264 264 265 266 265 263 262 262 265 271 273 275 277 278 279 279 280 276 273 272 271 272 274 274 275 276 276 277 277 277 276 274 274 273 274 270 261 259 257 256 255 254 256 256 257 257 258 260 261 263 263 263 264 263 263 264 264 264 264 264
275 276 275 275 275 273 273 272 272 271 271 271 272 272 270 268 269 267 265 266 266 266 267 264 264 264 264 265 266 266 263 262 262 262 265 269 272 276 277 278 278 279 278 277 275 275 276 276 277 277 277 276 275 272 269 269 272 273 272 270 258 258 256 255 255 255 255 255 257 257 258 258 260 261 262 262 261 260 261 261 261 262 262 262 262
275 274 275 274 272 272 273 272 270 269 268 269 269 270 269 268 268 267 266 266 266 265 266 265 265 264 265 266 266 263 262 261 261 261 263 264 265 269 272 274 277 277 276 276 277 277 277 277 276 277 276 277 276 274 272 271 266 264 260 258 257 256 256 255 255 256 256 256 257 257 258 259 259 259 259 258 258 259 261 261 261 261 262 262 261
276 275 274 273 272 271 272 269 269 269 268 269 269 268 268 268 268 268 267 267 266 266 266 266 266 266 266 266 262 260 261 261 262 262 264 265 265 267 268 269 270 272 273 274 274 274 273 274 274 272 269 267 265 262 260 259 260 260 257 256 255 257 260 264 264 256 256 256 256 256 257 256 256 257 258 257 258 259 260 260 260 260 261 261 260
272 270 270 270 270 269 271 270 270 270 268 267 268 270 269 268 268 269 269 266 268 269 268 268 268 266 264 263 263 262 262 263 264 268 267 269 267 266 266 267 268 269 272 274 271 270 269 268 268 269 268 267 266 265 263 260 259 257 257 255 253 253 252 253 253 255 255 254 255 255 256 255 256 256 257 258 258 259 260 259 260 259 260 260 259
270 270 269 270 270 268 268 269 268 268 268 267 267 265 267 271 270 268 267 270 273 274 273 267 264 263 264 265 265 266 266 267 270 272 273 273 273 273 271 271 272 270 271 274 274 270 269 267 267 267 267 267 266 266 266 264 262 261 258 261 258 253 254 254 253 255 254 254 254 254 255 255 255 256 257 258 258 258 260 263 260 259 258 258 258
270 269 268 269 270 269 268 267 266 266 266 266 265 266 265 266 273 274 273 271 272 274 275 275 274 272 267 264 266 273 273 274 273 274 274 275 275 275 275 275 274 274 274 271 270 270 269 268 267 267 267 267 266 266 265 263 262 260 261 258 254 255 258 255 254 254 255 254 255 254 254 254 255 256 256 257 258 259 259 257 257 258 257 258 258
272 271 270 269 269 267 266 266 265 264 264 263 264 263 264 265 264 270 274 275 274 274 274 275 276 276 275 272 267 264 271 274 275 275 275 275 276 276 276 277 277 277 276 276 270 269 269 269 268 268 267 266 266 265 264 263 262 260 258 255 257 254 255 254 256 253 253 253 253 254 254 254 255 255 256 257 259 259 259 258 257 258 258 258 259
271 269 268 267 266 266 265 265 265 264 263 262 261 260 262 263 265 263 265 273 275 275 275 275 276 276 277 277 276 271 270 272 274 275 275 275 275 276 277 277 277 278 278 275 272 270 270 269 269 268 267 265 265 264 263 262 261 259 257 255 256 255 256 256 257 256 254 254 255 255 255 255 255 256 257 258 258 257 258 258 258 258 258 258 259
268 267 265 265 265 264 264 264 264 263 262 262 262 262 262 263 263 261 260 259 264 271 275 276 276 276 277 277 277 277 275 274 274 274 275 275 276 276 276 275 277 278 277 273 273 272 271 268 267 267 266 265 265 263 261 260 259 258 257 255 257 256 255 253 253 253 253 254 253 254 254 254 254 254 255 255 256 257 258 259 259 258 258 259 259
264 266 266 265 264 264 263 263 263 262 262 262 262 261 262 260 262 262 261 262 263 263 262 268 274 276 274 275 276 277 277 277 276 275 275 276 276 276 277 274 273 273 274 274 272 270 269 267 266 266 265 264 263 262 261 260 258 257 256 255 253 253 254 252 253 254 252 252 252 252 253 254 253 254 255 255 256 257 258 258 258 258 258 259 260
263 263 263 263 262 262 262 264 262 263 262 261 261 260 260 260 262 260 259 260 260 259 260 264 266 270 272 273 274 274 274 274 274 275 276 276 277 277 273 271 270 269 269 269 269 268 267 266 265 264 263 262 261 260 260 260 258 257 254 252 254 253 252 251 252 252 252 252 253 255 256 254 253 253 252 254 255 257 258 258 258 258 259 260 260
261 261 262 261 260 261 260 259 260 260 263 260 261 259 259 259 259 258 258 258 258 258 260 260 261 263 268 265 267 270 271 271 271 271 272 272 272 269 267 268 268 268 267 267 267 266 266 265 263 263 261 261 260 260 259 258 257 254 256 255 253 252 251 250 251 253 253 252 252 251 251 252 252 251 253 254 256 257 258 257 257 259 260 261 260
259 260 260 258 258 258 258 257 258 263 260 258 257 259 258 257 258 258 258 258 259 259 259 259 264 264 265 264 266 263 264 268 268 268 267 266 264 262 263 263 263 263 264 264 264 264 264 263 262 262 262 260 260 258 257 256 256 254 253 252 252 253 257 257 258 255 254 253 253 252 253 252 252 251 254 254 255 256 257 257 257 258 259 259 259
256 263 264 265 264 259 257 258 259 258 257 257 257 258 258 257 256 257 258 258 260 260 260 261 262 262 262 262 260 262 263 260 259 259 259 259 260 260 259 259 259 260 260 261 261 261 261 261 260 259 258 257 257 257 255 255 253 253 253 251 252 250 252 251 252 253 253 253 253 251 251 252 251 251 252 253 255 255 256 257 258 258 258 257 257
258 259 262 265 262 262 258 258 258 257 257 257 255 256 257 258 258 259 260 261 261 261 260 259 259 260 260 259 259 259 258 259 258 258 257 257 258 258 257 256 256 255 256 256 256 256 256 256 256 255 256 255 255 254 252 251 252 254 252 252 252 252 253 252 252 253 253 253 252 251 251 251 251 251 250 252 253 254 256 257 258 257 257 257 257
256 259 261 263 261 259 257 257 256 256 255 256 256 256 257 259 260 260 259 259 258 257 257 257 258 259 260 261 264 263 258 257 257 257 258 257 257 256 255 254 253 252 252 253 254 254 252 252 251 251 251 251 250 249 249 250 252 252 252 253 252 253 253 253 254 254 254 253 252 251 250 250 250 249 250 252 257 258 257 256 255 255 256 256 257
256 256 257 257 258 256 255 255 255 258 255 256 256 256 257 257 257 257 257 257 257 257 256 256 257 257 260 264 264 266 262 259 259 258 258 257 256 256 255 254 252 251 252 252 252 252 251 250 251 249 249 249 249 250 250 250 251 251 252 252 252 252 253 253 254 254 254 252 251 250 248 249 252 253 255 257 255 254 254 255 255 255 255 255 256
256 255 255 256 255 255 255 255 255 254 254 254 254 257 257 256 255 257 257 257 257 256 255 256 256 256 257 262 262 264 257 256 258 258 257 256 255 254 253 252 251 250 250 250 249 248 249 249 249 249 249 251 250 251 252 252 251 251 251 251 252 253 253 254 254 254 252 250 249 250 249 249 251 250 250 251 253 254 254 253 253 254 254 255 255
255 255 255 255 254 254 255 255 254 255 254 256 256 256 256 256 256 256 256 255 255 255 255 256 256 256 254 255 256 255 253 253 252 251 251 252 251 252 252 249 248 247 247 248 248 247 248 248 249 250 249 249 250 249 251 251 252 251 251 252 252 253 253 254 254 253 251 249 249 249 248 248 251 249 251 253 251 251 251 252 253 254 255 255 254
254 254 254 254 253 253 253 253 254 253 255 255 254 256 257 257 257 257 257 256 256 255 256 255 255 254 254 254 253 252 252 250 251 251 250 249 249 250 250 249 248 248 248 248 247 245 246 248 249 248 250 250 250 250 250 251 250 251 251 252 252 253 253 254 253 251 249 247 247 247 248 249 248 248 249 250 251 250 252 252 253 255 255 255 254
253 253 254 254 253 253 252 251 254 253 253 254 254 256 257 257 257 256 256 256 256 255 254 254 253 253 253 253 251 251 251 249 249 249 249 248 248 249 248 249 249 248 247 247 246 245 247 248 248 249 250 250 250 249 250 249 250 250 249 249 252 253 253 252 248 247 247 246 247 246 248 248 248 250 251 250 250 250 250 250 251 252 253 254 254
251 253 253 253 253 253 253 253 252 252 252 253 254 255 256 256 255 255 254 254 254 254 253 253 253 253 253 252 251 251 251 250 251 250 250 249 247 249 249 248 248 248 247 246 245 247 247 249 249 249 249 249 248 249 249 248 246 248 248 250 250 250 250 248 248 247 248 247 248 245 248 249 249 249 251 252 251 250 251 251 251 251 252 253 253
251 252 252 252 252 252 252 252 252 255 253 253 252 252 252 252 252 252 253 253 254 254 253 253 252 252 252 252 251 251 251 251 251 250 250 250 249 249 248 246 247 248 246 247 246 247 247 247 248 247 249 249 249 249 249 247 247 247 246 247 247 248 249 250 248 247 247 246 246 246 248 248 248 248 249 249 248 249 249 250 251 252 253 253 255
250 251 251 251 251 251 251 251 252 251 250 250 251 251 251 250 250 250 251 252 252 252 252 252 252 252 252 252 252 251 251 250 250 249 249 249 248 247 247 246 248 248 246 247 248 247 247 247 248 248 248 248 248 248 248 247 247 247 246 247 248 251 252 252 251 249 250 249 247 247 246 248 248 248 249 249 250 250 250 250 251 252 253 254 254
250 251 251 251 251 251 251 250 250 248 250 249 249 249 250 250 250 250 250 251 251 251 252 252 252 252 251 251 251 251 250 249 250 249 248 248 248 247 247 247 246 246 246 247 247 247 246 245 245 245 246 247 247 247 247 247 247 248 246 248 251 253 253 253 253 253 252 248 248 247 248 248 248 248 248 248 249 249 250 251 252 253 254 253 253
251 250 250 250 250 250 249 248 248 248 248 248 248 248 249 248 249 249 250 250 251 251 251 251 251 251 251 251 250 250 249 249 250 249 249 249 248 246 247 246 247 245 245 247 247 247 246 244 245 246 246 247 247 247 247 247 247 248 250 252 253 253 253 253 252 253 254 253 248 249 249 249 248 248 249 249 249 249 251 252 253 253 254 254 255
Wind_Speed
11 10 10 9 11 11 10 9 9 7 8 7 8 8 7 7 7 7 6 7 7 8 8 8 8 7 6 5 4 4 4 4 4 5 5 5 5 4 3 4 5 3 4 3 3 3 3 3 3 2 2 3 2 2 2 1 2 2 3 3 2 2 0 2 5 10 10 2 3 5 6 7 7 5 10 10 9 9 9 8 9 9 9 9 10
12 11 9 10 11 10 10 8 8 8 8 8 8 7 7 7 6 6 7 7 7 8 8 7 7 7 6 5 4 4 4 4 4 5 6 5 4 3 4 4 4 3 3 3 3 2 3 3 1 1 1 2 1 1 0 0 2 2 1 2 1 3 3 2 4 5 13 9 6 4 5 6 9 5 7 12 11 9 10 10 9 8 9 9 9
9 9 10 11 10 9 9 9 9 9 9 8 8 8 7 6 5 7 7 7 5 7 8 8 8 7 6 5 4 4 4 4 3 4 4 5 5 3 4 4 4 3 3 3 2 2 3 2 1 1 0 1 0 0 0 1 2 2 1 1 1 2 2 2 3 5 8 11 4 8 8 7 6 9 10 8 9 9 11 10 9 9 8 9 9
9 10 9 10 10 10 10 9 11 10 10 9 10 8 7 6 6 6 6 6 7 6 7 8 7 7 6 5 4 4 4 4 3 4 4 4 4 4 4 4 3 3 3 2 2 2 3 2 1 1 1 1 1 1 1 2 2 1 2 2 2 3 3 3 4 5 6 9 8 6 9 9 8 6 7 9 9 9 8 10 9 9 10 8 8
10 10 11 12 11 11 11 11 12 11 11 9 10 9 8 7 6 7 7 7 6 7 7 7 7 7 8 7 6 5 5 4 4 4 3 3 4 4 4 4 3 3 3 3 3 3 2 2 1 1 1 1 2 2 2 3 2 2 3 3 4 4 4 4 5 5 6 8 10 6 6 7 7 8 7 10 11 9 8 9 10 10 10 9 8
11 12 12 13 12 13 12 12 13 13 12 11 11 10 9 8 7 6 7 9 7 7 8 7 7 7 6 6 6 5 5 5 4 4 4 4 3 3 4 4 3 3 3 3 3 2 2 1 1 2 2 3 3 3 3 3 3 3 4 4 4 3 4 4 4 5 5 7 8 11 6 7 10 8 6 9 12 14 12 12 9 7 9 11 10
12 13 12 13 13 14 13 13 13 12 12 11 10 9 9 8 8 8 7 8 9 8 6 6 5 7 6 6 6 7 6 5 5 4 4 4 4 4 4 4 3 3 3 2 1 1 1 1 2 2 3 3 3 3 3 3 4 4 4 4 4 3 4 4 4 5 6 9 8 8 9 8 9 12 11 10 10 11 11 15 16 9 8 10 12
12 13 13 13 14 14 13 12 12 12 10 10 10 9 8 8 8 7 7 8 8 8 9 8 6 6 6 7 7 6 6 5 4 4 4 4 4 4 4 4 3 3 2 1 1 1 1 2 2 3 3 3 3 3 3 4 3 4 5 3 3 4 4 4 4 4 5 6 7 9 9 9 7 9 10 10 12 10 10 11 15 18 14 12 15
14 13 13 14 14 12 11 11 10 11 11 11 10 10 9 9 7 7 7 7 6 7 6 6 7 7 6 7 7 6 6 6 5 6 5 5 5 5 4 4 4 4 2 1 1 1 2 3 3 3 3 6 8 7 6 6 4 3 4 3 3 4 4 3 3 4 5 6 8 7 9 9 8 10 15 12 11 16 13 13 15 12 15 17 13
13 13 14 14 11 11 12 11 11 11 11 11 11 10 9 9 8 8 8 7 7 6 6 6 7 7 8 7 6 6 6 5 6 11 9 6 5 5 5 5 4 3 3 3 3 3 3 3 4 7 8 8 7 8 8 9 8 5 4 4 4 3 4 4 5 5 6 7 7 7 7 7 9 12 12 14 14 13 14 15 15 17 15 13 15
13 13 13 12 11 11 12 12 12 13 12 11 10 11 10 9 8 7 7 6 8 7 7 8 7 7 8 8 8 6 6 5 11 13 14 13 7 5 5 5 4 4 4 4 4 4 3 3 3 5 5 6 5 9 9 9 7 8 9 8 7 4 4 5 6 6 6 7 6 4 7 13 14 12 13 13 12 14 14 14 15 14 12 15 15
13 12 11 11 12 13 12 12 13 12 11 12 11 10 9 8 8 8 7 7 7 6 8 9 8 7 6 7 7 7 6 8 14 14 15 14 11 6 5 4 4 5 4 5 4 4 4 4 3 4 4 4 4 5 7 8 9 9 9 9 9 11 10 7 7 6 6 7 8 7 9 12 13 11 12 13 14 15 14 14 13 13 14 13 14
12 12 12 12 12 12 11 12 12 11 11 11 10 9 9 9 9 9 10 8 6 8 10 9 9 7 8 9 8 7 6 10 14 15 15 15 14 10 5 5 5 5 5 5 5 5 4 5 5 4 4 9 7 3 3 4 8 10 9 11 12 12 11 13 13 9 7 8 9 10 9 9 12 12 12 14 14 15 14 13 13 13 13 13 13
13 12 12 12 11 11 11 10 11 11 10 10 9 10 10 11 10 8 7 7 8 8 7 9 8 9 9 9 8 7 7 10 15 15 15 15 15 12 5 5 5 5 7 5 5 6 5 5 5 5 4 5 5 6 5 4 5 5 7 7 7 10 14 14 12 14 13 9 9 8 8 8 11 13 13 14 14 13 13 13 13 13 13 14 16
12 11 11 11 10 9 11 11 12 10 10 10 10 10 11 9 9 8 8 10 11 11 11 10 10 9 8 7 7 7 7 12 15 16 15 16 16 13 6 6 5 6 6 7 6 6 5 5 5 5 5 5 6 7 6 6 5 6 7 8 7 8 7 7 6 6 6 5 7 9 10 10 10 12 13 12 12 12 11 12 12 12 14 14 14
11 10 11 10 11 11 12 11 11 10 11 10 11 11 11 11 11 9 7 7 6 5 5 6 8 9 8 7 7 9 7 14 15 15 15 15 17 7 6 6 5 5 6 7 7 6 5 5 5 6 6 6 9 14 10 7 7 9 9 8 6 4 4 6 10 10 9 9 8 9 8 10 15 13 13 11 10 10 9 8 7 8 10 11 11
13 14 13 12 12 12 12 12 12 11 11 11 12 12 13 11 9 7 8 9 9 9 10 9 8 8 8 9 9 8 6 12 16 16 15 16 12 6 6 5 5 6 6 6 5 5 5 5 5 6 6 7 11 14 13 11 7 9 8 4 4 4 6 5 7 13 15 15 13 13 15 17 17 17 16 16 12 10 7 8 6 7 10 12 12
15 14 13 13 12 11 11 11 11 11 12 14 15 14 11 8 10 9 12 11 11 12 9 8 7 8 9 10 10 10 9 11 16 16 16 17 12 7 6 6 7 6 6 7 6 6 6 12 10 7 8 7 12 15 14 10 8 8 5 5 6 7 5 1 2 5 10 8 8 10 12 12 13 14 14 14 14 10 6 7 8 8 9 8 11
13 13 13 11 11 12 11 12 13 14 14 15 13 13 12 12 9 8 9 8 9 6 6 7 7 7 8 9 8 9 8 9 15 16 17 17 13 6 7 6 7 8 6 6 6 6 6 8 14 12 10 10 16 15 15 12 9 5 4 6 8 5 3 3 5 2 0 3 4 4 5 7 7 6 8 13 13 10 7 7 6 6 8 8 10
10 10 10 10 10 10 10 12 12 12 13 11 9 10 7 6 8 9 8 7 7 6 6 7 8 8 7 7 8 9 8 7 9 17 17 17 17 8 6 7 9 9 7 6 6 6 6 6 10 15 17 17 16 17 16 16 8 4 5 6 4 6 3 3 1 0 1 2 3 2 4 5 4 6 6 6 6 5 8 7 7 7 7 8 8
9 9 8 8 8 10 9 11 13 12 11 11 9 7 7 8 7 7 8 6 5 5 7 7 7 7 6 7 7 7 7 8 9 16 17 18 18 15 7 10 9 7 6 7 6 6 6 6 5 12 16 16 15 16 16 15 13 6 3 3 4 6 7 4 1 1 0 2 3 3 4 3 4 4 4 5 4 5 5 7 7 8 8 8 9
7 7 9 9 10 10 10 10 10 10 8 8 9 9 7 7 7 7 5 6 7 8 5 5 7 7 6 6 7 8 7 9 6 13 17 18 18 20 10 10 10 7 7 7 6 7 7 5 5 9 15 16 15 16 17 15 15 6 3 8 13 16 2 3 1 0 1 3 3 4 4 4 4 5 5 5 5 6 6 6 7 8 8 8 9
7 8 9 9 9 10 9 10 9 8 8 9 10 10 7 7 7 7 8 7 8 8 8 7 7 8 7 7 7 8 7 7 13 10 15 17 18 19 20 12 15 10 9 9 8 7 4 5 6 13 15 15 16 16 16 17 13 4 7 12 14 10 4 0 1 3 3 3 4 4 4 4 4 5 6 6 6 7 7 7 8 8 8 8 9
7 7 8 8 8 8 8 9 8 7 9 8 8 9 8 8 7 8 8 8 8 9 8 7 7 8 10 10 8 8 7 7 10 15 12 17 17 18 19 21 18 10 9 9 7 7 5 6 7 14 16 15 16 17 16 17 6 6 8 11 11 3 2 3 3 1 3 3 4 4 4 4 3 5 5 5 6 8 9 9 8 8 8 9 9
8 8 8 8 9 8 7 8 9 8 8 10 10 9 8 8 8 7 8 8 9 10 10 8 10 10 8 10 11 8 8 8 7 10 16 15 17 18 19 20 20 20 11 7 11 9 10 14 16 16 15 16 17 18 15 9 6 4 5 9 2 1 1 1 1 1 4 6 4 5 5 3 4 5 6 7 8 8 7 8 7 7 7 8 9
8 9 8 8 8 7 8 7 7 7 8 8 10 9 11 10 10 9 8 9 9 10 10 8 9 9 10 11 11 10 6 6 7 5 7 11 12 18 20 18 18 20 19 10 12 16 18 18 18 18 16 14 9 2 3 4 6 5 4 2 1 1 1 1 2 3 6 5 5 5 5 4 4 5 6 6 5 7 7 8 9 8 7 7 9
8 7 8 7 6 7 9 8 7 6 6 6 6 7 7 8 8 9 10 10 10 9 9 10 10 10 12 13 11 6 5 5 5 4 6 7 8 8 9 11 16 17 12 10 11 10 12 12 9 12 11 15 12 8 5 4 1 1 0 0 0 2 3 3 5 6 5 5 5 5 4 4 3 4 5 4 6 6 5 7 7 8 8 8 8
9 8 8 7 7 7 8 9 9 7 8 8 8 7 7 8 10 12 13 13 12 12 11 11 12 12 12 11 5 3 6 5 6 7 8 8 8 8 8 6 6 5 7 7 5 5 3 4 6 2 2 3 2 3 1 1 1 2 1 0 2 4 5 6 6 3 3 3 4 3 4 4 4 4 4 4 5 6 5 6 5 8 7 8 8
5 5 5 6 7 7 7 8 8 9 8 7 9 10 12 11 12 11 9 8 10 11 11 11 11 8 6 6 6 7 6 9 10 8 10 11 9 7 7 8 7 7 8 10 4 2 2 3 4 6 7 7 5 5 5 4 3 3 3 2 3 5 4 2 5 7 5 3 5 4 5 4 5 4 4 5 5 5 5 5 5 5 8 5 7
5 5 6 6 6 6 7 7 7 7 8 9 8 8 7 9 9 9 7 5 11 12 8 8 4 5 6 7 7 10 10 7 6 13 16 16 17 16 14 13 12 9 9 14 10 6 6 6 7 7 7 7 8 8 7 6 6 5 4 5 4 4 4 4 4 6 4 4 5 4 5 4 5 4 4 5 7 5 5 6 7 5 5 7 9
5 5 5 7 8 7 6 6 6 6 6 7 7 8 7 6 11 13 9 6 8 11 14 13 10 10 9 7 7 15 15 11 10 12 15 16 17 17 17 16 16 15 15 9 9 9 7 8 8 7 8 8 9 8 7 6 6 6 5 5 3 5 6 4 5 5 5 4 4 4 4 4 5 5 5 5 6 7 5 4 4 5 6 6 8
7 7 7 6 6 6 6 5 5 6 5 4 5 5 5 6 6 6 12 13 13 14 13 13 14 14 15 13 8 6 11 15 15 13 13 14 15 15 15 16 16 16 16 16 9 9 8 8 8 8 8 9 9 7 7 7 7 6 5 3 6 5 6 7 5 4 5 4 4 5 4 5 5 5 5 5 7 6 6 6 5 5 6 5 6
6 4 4 4 3 4 5 5 5 5 5 4 4 3 5 5 7 6 3 8 13 14 15 16 16 17 17 17 16 12 10 11 14 14 14 13 13 13 15 17 17 17 17 12 10 9 9 10 10 8 8 8 7 6 6 7 6 6 6 7 6 5 6 5 3 3 4 5 4 5 5 4 4 6 6 6 5 6 6 6 6 5 5 7 8
3 2 4 4 5 5 5 5 5 5 4 4 6 6 6 6 6 5 4 4 5 8 12 16 16 16 17 18 16 16 14 13 13 13 13 13 14 14 14 11 16 18 15 9 8 9 6 5 6 5 5 6 6 6 6 6 5 5 6 6 5 5 5 3 3 5 5 5 5 5 4 5 5 4 5 4 4 5 6 7 5 6 7 7 8
1 1 3 4 4 5 4 4 5 4 5 5 6 6 6 5 5 6 6 6 7 7 4 5 10 14 11 10 14 15 15 14 14 14 14 14 14 15 15 10 9 8 9 8 6 5 4 4 4 4 4 5 5 5 6 5 5 6 6 5 4 4 5 4 5 5 5 5 5 5 5 5 5 5 4 5 5 6 6 6 5 5 7 8 7
1 1 1 2 3 3 5 5 5 5 5 5 5 5 5 5 5 6 5 4 6 4 4 4 2 2 1 0 2 3 2 2 3 3 7 10 11 11 7 5 4 4 4 4 4 4 3 3 3 3 2 3 2 4 5 5 6 6 5 3 4 6 6 5 6 5 4 6 5 5 5 5 4 4 5 4 5 6 6 5 5 6 7 7 6
2 2 1 2 2 2 2 2 3 3 3 3 4 3 3 3 4 3 5 6 5 3 5 3 1 3 1 2 2 1 2 1 3 3 5 6 8 6 3 2 2 2 2 3 4 4 5 5 4 4 4 4 4 4 4 5 5 4 3 4 5 5 6 5 5 5 5 5 6 5 4 5 5 4 3 5 5 5 6 5 5 7 7 8 9
3 3 3 3 3 3 3 3 2 4 3 3 3 4 3 3 4 4 6 5 4 5 5 4 5 6 6 3 5 2 2 4 4 4 5 6 6 3 2 1 1 0 2 2 3 3 2 2 0 2 2 3 4 3 4 4 4 4 5 4 5 6 6 6 7 5 4 5 5 5 5 5 5 5 4 4 6 6 6 6 6 6 5 7 5
3 5 6 6 5 5 5 4 5 5 4 4 5 5 6 6 4 5 5 5 5 5 4 4 5 5 4 2 1 2 3 1 1 3 1 1 0 1 1 2 2 3 2 2 3 3 2 3 2 2 1 2 3 3 4 4 4 5 5 4 5 4 5 5 5 5 5 6 5 5 5 5 5 4 4 4 6 6 6 6 7 6 5 6 6
4 3 4 6 5 4 5 6 5 6 7 6 6 6 5 6 6 6 5 5 5 5 5 5 5 5 3 3 2 2 2 2 2 2 1 3 3 2 1 2 2 2 2 3 3 3 3 3 2 2 3 3 4 4 3 5 4 4 4 5 5 5 6 5 5 5 6 5 5 5 5 5 5 5 4 5 5 6 7 7 5 4 5 6 6
3 3 4 4 5 4 4 4 3 3 3 3 3 4 4 4 3 3 3 4 3 3 4 5 5 2 3 3 5 6 4 3 3 3 4 4 4 3 3 3 2 2 2 2 3 3 3 3 3 3 4 4 4 3 4 4 5 4 5 5 5 5 5 5 5 5 5 5 5 5 5 5 4 4 5 5 6 6 4 4 5 6 6 5 6
5 3 3 4 5 4 4 4 4 4 3 4 2 1 2 2 1 1 2 2 3 3 2 2 1 1 2 5 5 7 4 3 4 4 3 3 4 4 3 3 2 3 3 4 3 4 3 3 4 3 4 4 3 3 3 4 5 5 5 5 5 5 5 6 5 5 5 5 5 5 4 4 5 5 5 5 4 4 5 5 5 5 5 6 6
4 4 4 5 4 4 5 4 5 5 4 4 3 3 4 3 2 1 1 1 1 1 2 2 1 1 1 3 3 4 4 2 1 0 1 2 2 3 3 3 3 3 3 3 3 3 3 4 4 4 4 5 5 5 6 6 5 6 6 5 5 5 6 5 5 5 5 4 5 4 5 5 5 4 4 4 5 5 5 4 5 5 6 6 5
4 5 5 4 4 3 4 5 4 4 4 4 4 5 4 4 3 3 3 1 1 1 2 2 1 1 1 2 3 4 2 1 0 1 1 3 4 4 4 2 2 3 3 4 4 3 4 4 5 5 4 4 5 4 6 6 6 5 6 6 5 6 6 6 6 6 5 5 5 5 5 4 4 4 4 5 4 5 5 4 5 6 6 5 5
4 5 5 4 3 5 2 2 4 4 5 5 4 4 4 5 4 4 4 4 2 2 2 2 2 2 2 2 2 3 3 3 3 3 3 4 5 6 5 5 3 4 5 5 5 4 4 3 4 4 5 5 5 5 6 6 5 6 6 6 6 6 7 7 6 4 5 4 5 4 4 5 5 5 5 5 4 5 5 4 4 6 7 6 6
3 3 5 4 4 5 5 3 5 4 3 4 4 3 2 2 2 4 3 3 2 3 3 3 3 3 3 3 2 4 4 3 4 3 5 3 3 5 4 5 5 5 6 6 5 3 3 4 4 5 6 6 5 5 6 5 5 5 5 5 7 7 6 5 3 3 5 5 6 5 5 5 5 5 7 6 5 5 4 4 4 5 5 7 7
2 2 1 3 3 4 4 4 3 3 3 2 3 4 4 3 3 3 2 2 3 3 3 3 3 4 4 4 4 4 4 3 4 3 4 4 4 5 5 5 6 6 6 4 3 4 4 5 5 6 6 6 5 6 6 6 5 5 5 6 6 6 6 5 5 5 5 5 6 4 5 5 5 4 6 5 4 4 4 5 5 6 6 7 7
2 2 2 2 2 2 1 1 1 2 2 2 1 2 2 3 2 3 2 2 2 2 3 3 3 4 4 4 3 3 3 4 4 5 4 5 5 6 6 5 6 6 3 4 3 4 4 5 6 6 6 6 5 6 6 5 5 6 5 6 6 6 6 6 5 5 5 4 5 5 5 6 5 5 5 5 5 4 5 5 5 5 7 7 7
2 2 1 1 1 1 2 1 3 2 2 1 1 1 2 1 1 1 2 2 2 2 3 3 3 3 3 4 3 3 4 5 5 5 6 6 6 6 6 5 5 5 4 4 5 5 6 6 6 6 6 6 6 6 6 5 6 6 5 6 7 10 11 10 7 6 6 5 5 5 5 5 6 6 5 5 6 5 5 5 5 6 7 7 7
1 1 1 1 2 1 2 2 1 1 2 2 2 1 1 2 1 1 2 2 2 3 3 3 4 4 3 4 4 4 4 5 6 6 6 6 6 5 5 5 4 4 4 4 5 5 5 4 5 5 6 6 6 6 6 6 6 6 5 6 10 13 12 12 12 11 7 5 6 5 6 6 6 6 6 6 5 6 6 6 6 7 7 7 6
2 1 1 1 1 1 1 1 1 1 1 1 1 1 1 1 2 1 1 2 3 4 3 3 3 3 4 4 5 5 5 6 6 6 6 6 5 4 5 4 5 3 4 5 6 6 6 5 6 6 5 6 6 7 6 7 6 6 8 11 13 12 12 11 8 9 11 7 5 6 6 7 6 7 6 6 5 5 8 8 8 8 7 6 6
Wind_Direction
168 169 161 161 156 159 155 152 154 153 150 150 145 150 155 153 156 154 143 156 151 142 135 133 129 128 130 136 140 144 136 129 118 112 105 104 100 108 102 100 101 93 95 72 72 88 89 91 87 90 118 81 79 66 41 40 71 81 95 87 54 313 251 243 259 280 296 142 333 327 332 331 322 335 318 318 318 315 313 306 306 307 307 306 306
172 165 165 159 162 156 154 151 150 151 150 147 147 154 159 161 157 154 160 160 155 142 136 132 129 132 134 141 149 145 136 128 124 114 117 116 108 109 107 107 103 103 98 88 71 87 114 107 81 78 116 105 122 49 155 101 125 102 90 119 251 243 271 223 264 261 289 306 321 315 313 330 315 326 318 316 314 312 309 310 306 298 299 299 300
167 163 161 161 160 155 152 154 153 155 152 152 156 161 162 160 164 164 163 159 149 141 137 133 135 134 136 147 149 146 135 126 126 120 127 125 123 115 118 116 117 114 104 116 124 133 107 127 145 146 129 85 167 220 183 156 149 134 156 230 193 252 249 257 261 277 285 296 328 322 325 320 315 316 315 302 298 298 302 305 305 302 291 289 290
164 161 159 160 156 154 159 156 157 160 160 163 163 165 162 165 168 167 163 155 145 134 132 136 136 143 146 153 154 145 133 128 130 132 134 131 130 133 127 119 122 127 136 159 153 139 144 137 202 175 172 142 223 221 219 165 165 174 190 232 209 229 237 222 246 258 285 294 311 329 314 315 312 305 296 295 293 298 297 296 292 289 290 285 281
166 166 164 160 162 163 164 165 165 168 166 165 168 164 165 164 171 170 162 156 146 139 139 140 145 153 158 161 157 151 151 146 137 136 133 135 137 135 130 127 127 142 160 167 161 149 160 164 209 192 193 191 251 219 205 191 210 192 222 227 220 234 227 236 241 251 267 280 297 298 297 296 297 298 299 304 306 300 295 293 295 294 292 285 282
171 167 168 166 168 171 170 171 173 171 169 170 171 170 164 167 169 171 173 154 149 150 148 154 160 163 160 160 156 155 152 152 150 147 144 137 133 131 130 131 141 151 167 167 156 171 160 198 215 203 206 205 236 233 218 217 223 228 228 234 231 230 230 243 241 243 267 280 289 305 311 312 309 299 294 298 305 310 305 295 288 287 294 302 297
172 172 172 173 172 177 176 177 173 172 172 171 168 167 168 168 169 172 176 163 155 154 152 156 171 163 162 155 160 160 154 150 152 149 148 146 144 139 134 139 152 165 167 170 168 176 191 199 214 221 218 226 229 230 233 238 225 235 232 228 236 221 241 239 244 263 279 295 294 292 298 294 302 299 308 306 292 292 297 314 313 316 304 304 308
174 177 176 179 181 180 178 174 173 172 170 168 170 168 166 169 173 172 167 166 161 158 163 168 171 165 164 163 160 153 149 152 155 156 153 156 151 153 153 160 167 173 168 168 188 193 214 221 227 233 227 233 222 240 226 228 234 231 240 218 226 232 245 259 268 273 281 282 286 294 291 290 283 276 291 302 300 301 315 316 310 314 316 312 306
180 180 180 185 186 177 171 174 174 170 169 169 168 169 170 172 170 170 174 165 158 157 159 164 164 167 157 161 159 157 159 169 169 166 162 165 163 162 165 173 178 185 189 197 220 220 238 238 240 243 241 242 245 243 234 238 213 222 253 208 222 237 257 266 260 274 274 274 279 277 286 285 290 306 315 314 316 313 316 318 309 308 313 307 302
181 185 188 188 179 174 175 174 175 171 170 172 172 170 169 169 172 174 175 167 156 156 163 172 178 174 170 170 165 166 174 175 178 178 175 170 171 169 172 183 184 183 188 204 223 224 231 240 248 252 255 257 261 265 271 270 267 247 209 207 231 241 248 251 265 260 271 281 276 286 289 288 305 309 303 308 310 313 315 318 312 313 307 308 306
191 190 190 184 178 175 176 179 174 178 178 171 171 170 170 170 175 177 171 164 163 163 170 177 185 186 183 178 177 181 182 180 188 195 193 183 168 172 177 189 190 192 202 203 212 218 237 235 235 252 258 267 271 269 269 270 270 273 280 279 267 235 220 258 263 261 267 271 281 281 303 306 306 309 309 314 317 317 314 312 312 314 321 323 317
192 193 190 183 181 180 182 178 180 180 173 177 173 171 165 169 176 177 171 167 171 165 180 190 188 189 188 186 187 190 187 188 195 203 200 194 178 172 178 186 195 204 208 215 218 212 220 231 236 225 230 234 234 247 261 270 274 276 277 274 271 272 271 262 273 286 293 300 303 303 300 295 305 314 316 318 315 313 314 317 318 319 317 313 308
193 193 190 188 187 184 181 181 181 178 181 176 169 163 166 174 180 178 183 180 160 176 193 185 194 193 191 190 197 196 190 195 201 206 203 196 190 178 182 191 199 208 213 213 214 217 215 222 229 228 223 242 252 248 233 253 275 276 272 271 273 275 281 286 288 292 302 299 295 291 291 307 313 312 312 311 316 315 320 316 316 315 312 304 301
194 195 191 193 187 183 181 180 183 184 179 173 167 172 175 186 186 183 172 164 179 189 191 194 195 197 199 198 198 196 195 202 205 208 205 202 204 198 174 192 209 213 221 217 216 216 215 214 222 236 231 235 236 238 233 233 239 258 263 263 261 264 270 277 285 293 292 286 291 300 316 316 299 302 313 323 323 317 314 313 316 312 311 303 305
195 194 194 192 185 183 184 185 186 181 177 174 175 179 184 186 184 183 180 184 185 192 192 195 201 200 202 198 196 201 207 203 208 211 209 207 210 212 166 190 206 221 223 228 224 225 221 218 221 236 241 241 235 231 229 232 237 240 245 245 242 241 244 242 250 263 285 305 301 297 293 295 304 319 321 318 315 312 307 306 315 314 304 300 294
195 192 195 191 189 188 186 187 186 182 179 178 180 185 189 191 188 182 181 190 198 194 208 202 201 203 200 192 194 211 215 207 209 211 210 210 212 202 171 187 206 217 224 224 229 226 221 220 229 240 245 246 251 252 247 232 225 235 241 245 233 230 224 267 279 287 298 295 288 287 301 315 318 315 315 319 317 309 312 317 306 291 296 299 303
197 197 196 190 192 190 187 186 187 184 180 180 189 193 192 194 191 174 184 194 193 201 203 201 202 198 195 196 199 213 212 212 210 210 210 211 211 186 184 191 207 218 229 230 231 228 217 221 228 236 241 245 251 256 256 256 254 252 254 236 227 250 276 248 271 295 296 293 296 309 314 315 317 318 319 322 320 327 327 314 311 323 316 314 311
201 195 196 195 192 185 185 185 186 186 185 193 196 199 196 191 191 181 188 192 199 205 196 199 204 198 198 202 201 202 213 211 211 210 209 211 205 183 190 190 216 225 232 240 235 235 229 229 230 227 235 242 253 256 257 258 258 258 246 257 285 281 252 249 287 267 281 292 320 321 322 320 322 320 319 321 330 339 329 317 322 328 314 312 311
196 195 198 191 186 186 187 188 192 192 195 201 198 196 194 194 184 176 200 201 209 191 188 201 207 210 210 209 203 207 215 211 212 212 210 211 209 177 187 192 213 224 226 235 235 229 235 236 238 239 233 236 249 253 255 254 253 240 247 285 276 256 263 273 278 260 254 316 305 322 318 323 312 301 303 321 329 336 326 313 313 309 303 305 308
193 196 192 187 187 186 187 190 194 194 200 200 197 201 188 166 180 189 200 202 200 190 194 204 209 216 209 209 214 213 212 216 216 215 212 211 211 184 178 188 219 222 216 224 227 236 229 232 242 246 248 247 247 250 253 256 253 262 270 255 257 275 280 266 132 107 252 254 285 289 287 288 286 288 283 291 304 309 318 316 312 304 293 297 299
188 188 179 176 180 185 187 190 194 198 196 195 190 183 180 188 178 184 195 192 189 198 202 209 218 228 214 221 220 226 215 215 219 217 214 212 212 204 183 205 214 213 214 222 227 229 230 227 218 239 247 250 252 253 254 256 255 255 227 183 242 273 296 108 283 324 288 330 317 301 293 292 287 286 288 292 296 293 291 302 299 302 303 302 303
170 168 175 181 185 186 189 194 196 194 182 165 174 189 188 175 181 181 174 182 199 210 208 213 221 233 231 227 228 231 227 222 218 229 220 214 213 214 204 209 207 203 217 226 228 231 228 219 215 238 243 249 251 251 252 252 253 242 198 265 291 294 325 130 145 224 56 325 317 307 301 305 304 306 302 297 292 292 291 288 293 291 289 290 297
167 174 179 182 186 188 189 187 186 179 178 180 180 189 172 173 176 170 175 184 199 212 216 214 219 233 239 236 232 232 227 230 226 227 232 221 217 218 221 215 209 202 206 227 224 229 214 218 232 242 245 245 248 249 250 250 252 247 264 287 286 298 90 271 116 12 347 322 302 297 298 299 308 306 307 306 302 301 297 294 290 287 283 281 284
159 170 180 186 183 187 186 185 183 178 176 171 178 178 178 181 175 181 180 185 195 210 220 210 216 231 232 239 235 229 224 220 233 231 231 233 226 221 224 226 220 206 207 223 222 220 211 217 228 241 242 243 247 253 249 249 231 231 267 279 291 29 51 36 8 356 313 294 290 284 290 283 277 288 292 295 299 305 303 299 293 288 287 288 286
165 176 183 184 185 186 178 182 183 180 176 171 178 185 180 170 183 191 180 195 200 211 219 200 212 224 230 237 238 227 216 217 224 233 236 237 234 230 227 227 229 227 219 202 217 213 216 231 237 238 238 245 251 252 254 244 208 247 265 282 33 66 37 354 284 296 291 276 269 272 274 270 264 271 284 295 299 300 297 293 286 279 278 278 278
172 186 184 185 185 170 176 185 184 183 178 185 191 189 183 184 193 187 189 204 205 211 219 201 216 221 229 236 237 230 209 207 222 221 236 247 245 238 232 230 230 232 235 228 201 210 218 229 236 239 243 249 254 228 113 215 234 243 278 1 93 207 168 216 251 242 254 260 263 274 277 285 287 282 289 292 296 295 298 301 309 308 308 305 306
179 179 186 182 171 171 180 184 182 181 184 189 194 187 185 187 192 192 196 202 208 214 217 210 216 220 228 235 235 225 215 212 217 215 220 230 237 240 240 236 233 235 238 242 245 236 231 234 236 237 237 245 239 214 186 176 144 33 49 74 170 201 225 206 222 237 251 256 269 269 275 276 285 299 295 293 289 285 280 287 298 301 312 313 311
180 189 184 173 177 179 187 178 174 186 193 187 191 197 199 191 194 202 198 201 202 214 212 215 219 219 225 233 225 209 231 223 220 210 219 221 223 218 222 226 224 223 231 230 225 237 230 243 252 290 335 32 46 46 8 52 136 222 266 194 235 237 237 243 249 227 249 245 260 281 288 297 298 291 291 286 278 281 285 290 296 301 310 318 317
176 167 166 165 185 186 186 182 190 189 192 199 214 202 193 194 206 222 225 203 205 208 209 222 227 228 221 217 195 230 232 231 230 206 220 217 213 204 206 209 210 219 222 224 225 222 215 242 235 244 247 253 250 238 222 230 248 213 235 253 245 250 246 224 249 260 252 255 267 272 281 292 291 287 287 292 285 286 289 292 284 290 306 308 299
166 180 175 185 185 181 196 198 193 193 193 202 209 239 249 224 219 216 226 198 216 229 217 225 209 177 204 222 192 213 230 234 219 221 226 225 223 216 213 213 213 213 218 227 227 232 227 227 229 223 229 226 233 235 234 232 241 244 230 231 221 221 233 239 242 249 246 240 247 263 273 282 289 293 294 291 296 289 284 300 304 305 306 310 311
180 185 180 202 196 193 190 197 201 204 208 203 207 217 237 249 236 234 229 210 226 231 235 239 226 202 194 231 229 233 245 249 234 223 224 226 224 223 221 219 220 219 217 213 231 228 223 225 227 220 221 220 225 225 219 221 227 232 245 246 244 236 249 239 240 233 242 248 254 250 260 268 277 287 291 294 296 300 301 283 278 295 292 300 308
189 203 203 202 186 190 193 192 185 198 216 212 213 220 231 246 275 253 241 239 236 235 238 239 238 235 225 220 206 237 242 242 239 232 226 223 225 226 228 229 228 225 223 217 220 226 224 229 228 223 216 221 225 218 212 209 212 210 219 240 253 237 227 241 234 208 237 242 255 260 256 256 262 275 281 288 296 298 299 304 302 298 298 295 293
203 206 196 191 189 186 187 192 197 193 202 200 217 201 217 232 243 260 276 247 239 239 240 240 241 243 242 241 229 208 211 226 233 232 229 228 231 233 234 234 233 233 230 228 223 226 220 223 229 225 211 219 219 209 214 211 206 209 203 216 233 242 226 228 234 226 232 235 240 250 252 262 267 276 278 285 294 295 299 296 296 292 296 305 302
211 180 180 185 180 195 193 199 190 197 186 183 194 196 218 213 229 225 230 281 289 258 245 240 239 242 245 244 243 238 225 220 225 229 230 234 233 234 234 236 238 236 233 232 234 242 230 206 216 207 204 209 209 202 210 207 206 212 215 219 228 244 248 219 218 239 241 251 260 265 268 263 262 270 281 282 278 280 289 291 296 307 308 304 302
193 149 143 158 179 193 187 184 188 187 186 194 196 201 209 207 201 205 209 209 221 231 231 240 238 235 237 244 248 243 240 234 229 226 229 232 233 233 236 238 235 237 240 242 239 236 224 208 193 205 190 214 215 212 223 206 204 205 215 220 225 238 246 232 233 235 239 243 247 255 253 258 255 253 268 289 297 295 287 289 293 299 300 300 302
143 164 155 159 163 177 182 188 188 191 198 203 195 200 191 185 200 210 206 212 215 225 243 228 191 20 294 143 140 217 240 10 1 300 257 247 245 247 241 236 227 228 226 246 252 245 194 198 188 217 181 218 191 203 216 217 218 220 213 198 226 227 229 236 238 239 244 236 242 250 256 252 257 271 278 272 270 277 282 285 293 294 290 287 299
150 160 168 174 174 167 163 157 174 178 183 171 168 170 172 188 193 185 194 204 212 219 205 215 102 264 177 1 342 35 35 21 357 360 16 17 21 29 28 3 307 274 239 242 242 251 258 250 223 237 208 217 212 212 210 224 223 222 221 208 215 226 234 229 233 231 245 251 244 239 247 257 260 258 257 277 281 277 280 284 285 288 289 302 313
151 161 168 161 144 140 133 147 155 150 133 138 148 156 169 179 184 185 194 204 203 197 204 208 212 209 209 206 68 55 1 354 359 351 5 5 8 15 11 10 341 270 287 325 351 2 319 330 60 230 237 199 222 207 213 225 221 218 222 228 219 222 238 237 249 246 237 240 249 248 251 260 251 252 260 267 278 281 282 283 284 284 290 302 302
138 159 155 156 156 152 153 145 149 139 147 149 162 162 177 176 182 186 198 195 199 197 194 190 199 204 215 126 48 21 64 26 75 261 348 18 335 23 78 359 281 280 278 279 311 299 274 271 239 213 227 212 225 225 217 241 232 230 226 220 230 235 245 258 253 247 247 252 257 251 246 254 255 250 247 257 270 273 279 279 277 275 296 301 299
133 135 146 143 129 143 149 154 154 156 164 158 173 171 169 178 187 194 190 189 200 194 190 191 200 209 164 108 120 112 130 180 170 188 203 264 236 247 200 244 267 259 276 292 289 279 281 270 243 209 212 213 223 235 237 234 233 233 214 210 221 236 236 225 234 237 242 238 241 244 244 249 252 254 256 253 260 267 268 271 274 291 292 292 295
117 119 113 115 123 110 103 113 130 152 149 153 160 165 186 188 192 182 180 191 191 189 201 202 208 170 160 183 204 185 157 186 190 198 205 214 226 238 247 236 225 256 262 253 264 265 249 241 235 224 231 233 228 221 227 223 227 222 217 224 219 232 237 234 233 241 243 238 238 243 246 246 249 253 267 261 265 270 276 298 301 291 287 287 288
106 99 93 95 99 110 113 106 113 106 112 119 128 147 150 139 153 143 188 185 195 191 206 216 176 102 233 220 234 239 203 173 192 201 210 213 225 243 236 240 223 224 248 254 253 261 265 250 240 217 221 226 217 229 224 232 229 224 225 223 226 230 236 240 236 239 237 238 238 241 246 246 246 238 251 275 290 296 288 276 272 281 282 281 281
106 110 117 113 115 128 136 142 132 127 129 133 136 131 137 133 135 147 158 162 172 191 205 217 206 86 289 280 278 299 61 43 63 206 199 235 247 254 248 235 232 231 233 258 260 236 246 247 251 237 222 228 222 221 221 226 216 221 221 224 227 229 239 245 245 243 235 237 242 248 247 249 256 260 264 263 263 265 270 283 290 282 277 278 278
111 110 109 110 114 109 124 132 134 136 138 139 135 133 137 129 133 130 142 138 182 248 236 238 209 170 267 330 348 354 352 337 196 248 268 273 280 273 266 269 284 301 292 272 262 231 217 230 246 257 251 250 242 235 229 227 212 212 215 218 226 233 237 243 242 242 231 234 242 243 245 246 248 252 263 268 269 273 273 276 275 279 285 282 286
117 120 121 120 120 122 120 122 129 130 130 127 131 139 134 145 148 142 138 159 167 196 237 252 252 228 264 272 270 275 270 268 264 243 238 232 243 263 276 289 269 258 258 258 248 231 226 235 253 264 272 263 247 237 234 227 218 216 214 213 226 236 240 238 238 226 206 214 232 240 242 239 249 248 252 255 257 258 263 261 275 294 293 290 288
121 132 134 137 133 131 125 126 129 137 142 150 154 151 145 138 139 131 139 138 142 179 224 229 237 241 235 244 239 240 249 245 249 245 246 252 249 259 261 260 258 244 238 241 240 231 235 231 237 245 250 254 252 243 236 227 224 221 221 220 226 237 241 241 222 205 208 211 225 227 241 244 248 241 251 247 243 246 252 267 268 268 271 281 279
78 92 106 116 130 129 133 133 134 136 149 150 159 161 169 158 135 116 119 137 159 199 217 233 235 244 243 238 237 242 247 252 260 266 262 262 261 256 257 251 250 251 250 248 245 241 241 242 238 236 242 248 249 250 247 239 231 228 227 227 232 238 242 240 227 223 222 217 212 215 229 239 249 249 259 267 275 271 273 271 266 272 267 265 266
80 81 87 99 100 113 121 127 139 152 151 164 154 155 142 134 138 153 170 182 206 216 228 237 237 248 249 255 243 254 257 262 267 263 265 258 253 252 247 245 247 250 259 261 252 247 241 240 238 237 240 245 245 247 247 242 239 234 236 236 233 233 232 228 227 226 221 214 207 216 220 230 242 245 248 243 248 250 259 264 271 269 269 268 265
75 91 91 95 106 120 157 159 163 172 177 163 161 160 154 155 167 176 177 197 206 219 220 232 245 242 247 258 265 269 268 267 261 261 253 252 250 248 246 244 250 257 256 264 260 251 250 246 243 239 238 241 242 244 249 246 244 239 239 236 237 237 236 232 228 229 213 208 213 215 219 225 236 241 240 242 248 246 250 258 260 264 265 264 265
101 98 113 108 114 164 147 155 165 152 132 149 166 185 184 162 187 179 200 201 227 229 232 228 242 245 248 264 264 260 253 249 248 247 249 247 246 245 247 253 258 260 259 261 266 262 256 255 250 252 248 246 245 245 243 243 242 239 237 234 240 243 242 238 236 232 221 211 210 206 208 222 227 234 237 239 242 247 252 258 258 261 264 265 266
88 87 86 100 136 134 140 141 154 155 158 170 180 188 203 212 218 219 207 223 234 243 238 237 243 250 249 245 245 248 246 247 245 246 248 253 254 253 255 261 264 267 268 268 269 269 262 258 257 252 251 251 248 246 243 240 239 235 238 241 245 245 245 244 241 239 236 225 205 205 211 218 225 232 238 235 232 235 246 251 254 253 250 255 267